DW9615 Home Hill AU current weather conditions

sailwx.info

Wind from 001 at 2 knots gusting 9

Air temperature 31.1° C
Dewpoint 22.9° C

Last reported at 2015-Mar-05 06:37 UTC.
Time now 2015-Mar-05 08:06 UTC

Location: S 19°40' E 147°25'.
View on Google Maps.

See reports from other nearby stations

  
Tides and Currents Weather Stations Pressure Air Temp Water Temp Dewpoint Dewpoint Depression Visibility Wind Speed Wind Dir Waves Ship Positions
date/time (UTC)wind fromknots sea level pressurealtimeterstation pressurevisibilityair tempwater tempwave heightnotes
2015-Mar-05 07:37 024 1 gusting 4 30.6
2015-Mar-05 07:22 355 0 gusting 7 30.6
2015-Mar-05 07:07 021 2 gusting 7 31.1
2015-Mar-05 06:52 006 1 gusting 6 31.1
2015-Mar-05 06:37 001 2 gusting 9 31.1
2015-Mar-05 06:22 061 4 gusting 9 31.1
2015-Mar-05 06:07 009 3 gusting 11 31.1
2015-Mar-05 05:52 056 5 gusting 9 31.7
2015-Mar-05 05:38 007 5 gusting 10 31.7
2015-Mar-05 05:22 360 1 gusting 6 32.2
2015-Mar-05 05:07 110 0 gusting 7 31.7
2015-Mar-05 04:52 346 1 gusting 7 32.2
2015-Mar-05 04:37 005 1 gusting 6 31.7
2015-Mar-05 04:22 046 4 gusting 9 31.7
2015-Mar-05 04:07 344 0 gusting 8 31.7
2015-Mar-05 03:52 350 1 gusting 6 31.7
2015-Mar-05 03:37 359 1 gusting 8 31.1
2015-Mar-05 03:22 323 1 gusting 6 31.1
2015-Mar-05 03:07 349 2 gusting 7 30.6
2015-Mar-05 02:52 081 2 gusting 7 31.1
2015-Mar-05 02:37 053 4 gusting 7 31.1
2015-Mar-05 02:22 035 0 gusting 10 31.1
2015-Mar-05 02:07 135 4 gusting 8 30.6
2015-Mar-05 01:52 081 1 gusting 6 30.6
2015-Mar-05 01:37 122 5 gusting 9 30.6
2015-Mar-05 01:22 056 3 gusting 9 30.0
2015-Mar-05 01:07 078 3 gusting 8 30.6
2015-Mar-05 00:52 135 3 gusting 8 30.6
2015-Mar-05 00:36 066 5 gusting 9 30.6
2015-Mar-05 00:21 042 3 gusting 8 30.0
2015-Mar-05 00:06 072 3 gusting 7 29.4
2015-Mar-04 23:51 100 1 gusting 7 29.4
2015-Mar-04 23:36 065 3 gusting 6 30.0
2015-Mar-04 23:21 054 3 gusting 6 30.6
2015-Mar-04 23:06 183 1 gusting 4 29.4
2015-Mar-04 22:51 119 0 gusting 4 29.4
2015-Mar-04 22:36 079 1 gusting 3 29.4
2015-Mar-04 22:21 121 2 gusting 6 28.9
2015-Mar-04 22:06 135 2 gusting 5 28.3
2015-Mar-04 21:51 119 2 gusting 6 27.8
2015-Mar-04 21:36 156 1 gusting 4 26.7
2015-Mar-04 21:21 160 1 gusting 3 26.1
2015-Mar-04 21:06 211 25.6
2015-Mar-04 20:51 158 24.4
2015-Mar-04 20:36 194 23.3
2015-Mar-04 20:21 194 23.3
2015-Mar-04 20:06 165 23.3
2015-Mar-04 19:51 165 23.3
2015-Mar-04 19:36 165 23.3
2015-Mar-04 19:21 170 0 gusting 3 23.3
2015-Mar-04 19:06 165 1 gusting 3 23.3
2015-Mar-04 18:51 156 0 gusting 3 23.3
2015-Mar-04 18:36 175 0 gusting 2 23.3
2015-Mar-04 18:21 131 0 gusting 1 23.3
2015-Mar-04 18:06 127 0 gusting 3 23.3
2015-Mar-04 17:51 145 0 gusting 1 23.9
2015-Mar-04 17:37 157 0 gusting 3 23.9
2015-Mar-04 17:21 181 0 gusting 2 23.9
2015-Mar-04 17:06 175 23.9
2015-Mar-04 16:50 115 0 gusting 2 23.9
2015-Mar-04 16:35 160 0 gusting 2 24.4
2015-Mar-04 16:20 160 24.4
2015-Mar-04 16:05 161 24.4
2015-Mar-04 15:50 161 0 gusting 2 24.4
2015-Mar-04 15:35 170 24.4
2015-Mar-04 15:20 165 24.4
2015-Mar-04 15:05 175 24.4
2015-Mar-04 14:50 175 0 gusting 1 24.4
2015-Mar-04 14:35 175 25.0
2015-Mar-04 14:20 170 25.0
2015-Mar-04 14:05 245 25.0
2015-Mar-04 13:50 245 25.0
2015-Mar-04 13:35 153 25.0
2015-Mar-04 13:20 153 25.6
2015-Mar-04 13:05 175 0 gusting 2 25.6
2015-Mar-04 12:50 131 26.1
2015-Mar-04 12:35 121 0 gusting 1 26.1
2015-Mar-04 12:20 074 0 gusting 3 26.7
2015-Mar-04 12:05 089 1 gusting 5 26.7
2015-Mar-04 11:50 066 1 gusting 6 26.7
2015-Mar-04 11:35 039 3 gusting 6 26.7
2015-Mar-04 11:20 029 2 gusting 6 26.7
2015-Mar-04 11:05 050 0 gusting 4 26.7
2015-Mar-04 10:50 073 2 gusting 6 26.7
2015-Mar-04 10:35 064 2 gusting 6 27.2
2015-Mar-04 10:20 060 1 gusting 5 27.2
2015-Mar-04 10:05 056 1 gusting 4 27.2
2015-Mar-04 09:50 075 2 gusting 8 27.2
2015-Mar-04 09:35 052 3 gusting 6 27.2
2015-Mar-04 09:20 052 1 gusting 7 27.2
2015-Mar-04 09:05 044 3 gusting 8 27.2
2015-Mar-04 08:50 075 4 gusting 7 27.8
2015-Mar-04 08:35 090 4 gusting 8 27.8
2015-Mar-04 08:20 069 3 gusting 10 28.3
2015-Mar-04 08:05 080 4 gusting 12 28.9
2015-Mar-04 07:50 059 6 gusting 13 28.9
2015-Mar-04 07:35 062 6 gusting 13 29.4
2015-Mar-04 07:20 045 7 gusting 13 29.4
2015-Mar-04 07:05 073 7 gusting 15 30.0
2015-Mar-04 06:50 015 5 gusting 13 30.0
2015-Mar-04 06:35 112 6 gusting 13 30.6
2015-Mar-04 06:20 045 6 gusting 13 30.6
2015-Mar-04 06:05 114 6 gusting 14 30.6
2015-Mar-04 05:50 051 8 gusting 13 30.6
2015-Mar-04 05:34 114 8 gusting 14 30.6
2015-Mar-04 05:19 078 6 gusting 16 31.1
2015-Mar-04 05:04 074 6 gusting 13 31.1
2015-Mar-04 04:49 022 6 gusting 13 31.1
2015-Mar-04 04:34 044 8 gusting 14 30.6
2015-Mar-04 04:19 057 6 gusting 17 31.1
2015-Mar-04 04:04 040 8 gusting 16 31.7
2015-Mar-04 03:49 052 6 gusting 13 31.7
2015-Mar-04 03:34 056 6 gusting 13 31.7
2015-Mar-04 03:19 086 4 gusting 11 32.2
2015-Mar-04 03:04 066 6 gusting 13 31.7
2015-Mar-04 02:49 044 8 gusting 14 31.7
2015-Mar-04 02:34 047 5 gusting 13 31.7
2015-Mar-04 02:19 148 5 gusting 13 32.2
2015-Mar-04 02:04 131 6 gusting 12 31.7
2015-Mar-04 01:49 139 5 gusting 12 31.7
2015-Mar-04 01:34 116 4 gusting 10 32.2
2015-Mar-04 01:19 044 5 gusting 13 31.7
2015-Mar-04 01:04 067 5 gusting 13 31.1
2015-Mar-04 00:49 087 6 gusting 13 31.1
2015-Mar-04 00:34 062 6 gusting 11 31.1
2015-Mar-04 00:19 135 6 gusting 11 31.1
2015-Mar-04 00:04 156 3 gusting 10 30.6
2015-Mar-03 23:49 146 3 gusting 11 30.6
2015-Mar-03 23:34 075 4 gusting 10 30.0
2015-Mar-03 23:19 027 4 gusting 13 29.4
2015-Mar-03 23:04 152 5 gusting 11 29.4
2015-Mar-03 22:49 139 4 gusting 9 28.9
2015-Mar-03 22:34 117 4 gusting 8 27.8
2015-Mar-03 22:18 142 2 gusting 6 27.2
2015-Mar-03 22:03 153 3 gusting 5 26.1
2015-Mar-03 21:48 121 2 gusting 4 25.6
2015-Mar-03 21:33 175 0 gusting 3 25.0
2015-Mar-03 21:18 233 23.9
2015-Mar-03 21:03 234 0 gusting 1 22.8
2015-Mar-03 20:48 170 22.2
2015-Mar-03 20:33 175 21.1
2015-Mar-03 20:18 179 21.1
2015-Mar-03 20:03 237 20.6
2015-Mar-03 19:48 258 21.1
2015-Mar-03 19:33 175 21.1
2015-Mar-03 19:18 185 21.1
2015-Mar-03 19:03 239 21.7
2015-Mar-03 18:48 175 0 gusting 3 21.7
2015-Mar-03 18:33 156 1 gusting 4 22.2
2015-Mar-03 18:18 170 2 gusting 4 21.7
2015-Mar-03 18:03 135 1 gusting 3 21.7
2015-Mar-03 17:48 175 21.7
2015-Mar-03 17:33 175 21.7
2015-Mar-03 17:18 175 22.2
2015-Mar-03 17:03 175 0 gusting 2 22.2
2015-Mar-03 16:48 212 22.2
2015-Mar-03 16:33 251 21.7
2015-Mar-03 16:18 245 21.7
2015-Mar-03 16:03 244 22.2
2015-Mar-03 15:48 165 22.2
2015-Mar-03 15:33 165 22.8
2015-Mar-03 15:18 154 1 gusting 2 23.3
2015-Mar-03 15:03 086 0 gusting 2 23.9
2015-Mar-03 14:48 121 0 gusting 2 23.9
2015-Mar-03 14:32 133 0 gusting 3 23.9
2015-Mar-03 14:17 181 1 gusting 4 24.4
2015-Mar-03 14:05 149 3 gusting 6 25.0
2015-Mar-03 13:47 131 3 gusting 7 25.0
2015-Mar-03 13:32 150 3 gusting 8 25.6
2015-Mar-03 13:17 131 3 gusting 7 26.1
2015-Mar-03 13:02 108 4 gusting 9 26.1
2015-Mar-03 12:47 110 5 gusting 11 26.1
2015-Mar-03 12:32 116 3 gusting 9 26.1
2015-Mar-03 12:17 137 4 gusting 9 26.1
2015-Mar-03 12:02 064 4 gusting 8 26.7
2015-Mar-03 11:47 117 4 gusting 12 26.7
2015-Mar-03 11:32 145 5 gusting 11 27.2
2015-Mar-03 11:17 106 3 gusting 10 27.2
2015-Mar-03 11:02 127 4 gusting 11 27.8
2015-Mar-03 10:47 102 5 gusting 11 27.8
2015-Mar-03 10:32 142 5 gusting 10 27.2
2015-Mar-03 10:17 085 3 gusting 10 27.2
2015-Mar-03 10:02 091 1 gusting 8 27.2
2015-Mar-03 09:47 127 1 gusting 7 27.2
2015-Mar-03 09:32 120 2 gusting 7 27.8
2015-Mar-03 09:17 042 3 gusting 12 27.8
2015-Mar-03 09:02 028 4 gusting 11 27.8
2015-Mar-03 08:47 075 4 gusting 11 27.8
2015-Mar-03 08:32 085 3 gusting 10 28.3
2015-Mar-03 08:17 082 6 gusting 14 28.3
2015-Mar-03 08:02 047 6 gusting 13 28.9